Location: Boda
(47.1872°N, 9.5454°E)
Time: 09:38:12
(UTC+00:00)

CZ-4 R/B - Pass Details

Date: 14 May 2021
Orbit: 680 x 753 km, 98.5° (Epoch: 16 June)

Event Time Altitude Azimuth Distance (km) Brightness Sun altitude
Rises 01:00:45 0° 8° (N) 3,154 8.5 -20.2°
Reaches altitude 10° 01:03:08 10° 2° (N) 2,217 7.4 -20.1°
Maximum altitude 01:07:42 43° 292° (WNW) 988 4.5 -19.7°
Enters shadow 01:09:12 33° 248° (WSW) 1,175 4.6 -19.6°
